• In Hungary
  • List of Countries
  • For 7 days
  • Water Temperature
  • Satellite Maps
  • Weather Map
  • News
  • Weather Widgets
  • user-avatar
    Login

    Hourly Weather Semarang

    Today, 18 January, Thursday

    Time Temperature Precipitation Wind Pressure Humidity
    00:00 +28°C° 0.2 mm 3 mps 755 mmHg 82%
    01:00 +28°C° 0 mm 3 mps 755 mmHg 83%
    02:00 +28°C° 0.5 mm 3 mps 755 mmHg 83%
    03:00 +28°C° 0.5 mm 3 mps 755 mmHg 83%
    04:00 +28°C° 0.5 mm 3 mps 755 mmHg 84%
    05:00 +28°C° 0.2 mm 3 mps 755 mmHg 81%
    06:00 +29°C° 0.2 mm 3 mps 755 mmHg 78%
    07:00 +30°C° 0 mm 3 mps 755 mmHg 73%
    08:00 +31°C° 0.3 mm 3 mps 755 mmHg 68%
    09:00 +33°C° 0.3 mm 4 mps 755 mmHg 62%
    10:00 +35°C° 0.3 mm 4 mps 755 mmHg 57%
    11:00 +35°C° 0.5 mm 4 mps 755 mmHg 57%
    12:00 +35°C° 0.5 mm 5 mps 754 mmHg 58%
    13:00 +34°C° 0 mm 5 mps 755 mmHg 60%
    14:00 +34°C° 0.5 mm 5 mps 754 mmHg 61%
    15:00 +33°C° 0.5 mm 5 mps 754 mmHg 62%
    16:00 +33°C° 0.5 mm 5 mps 754 mmHg 63%
    17:00 +32°C° 0.4 mm 5 mps 754 mmHg 68%
    18:00 +30°C° 0.4 mm 4 mps 754 mmHg 73%
    19:00 +29°C° 0 mm 4 mps 755 mmHg 79%
    20:00 +29°C° 0.6 mm 3 mps 755 mmHg 80%
    21:00 +29°C° 0.6 mm 3 mps 756 mmHg 80%
    22:00 +29°C° 0.6 mm 3 mps 756 mmHg 81%
    23:00 +29°C° 0.5 mm 3 mps 756 mmHg 82%

    Tomorrow, 19 January, Friday

    Time Temperature Precipitation Wind Pressure Humidity
    00:00 +28°C° 0.5 mm 3 mps 755 mmHg 83%
    01:00 +28°C° 0.5 mm 3 mps 755 mmHg 84%
    02:00 +28°C° 0.3 mm 3 mps 755 mmHg 84%
    03:00 +28°C° 0.3 mm 3 mps 755 mmHg 84%
    04:00 +28°C° 0.3 mm 3 mps 755 mmHg 84%
    05:00 +28°C° 0.3 mm 3 mps 755 mmHg 82%
    06:00 +29°C° 0.3 mm 3 mps 755 mmHg 80%
    07:00 +29°C° 0.3 mm 2 mps 755 mmHg 77%
    08:00 +31°C° 0.2 mm 3 mps 755 mmHg 72%
    09:00 +33°C° 0.2 mm 3 mps 755 mmHg 66%
    10:00 +34°C° 0.2 mm 3 mps 755 mmHg 61%
    11:00 +35°C° 1.2 mm 4 mps 755 mmHg 61%
    12:00 +35°C° 1.2 mm 4 mps 754 mmHg 61%
    13:00 +35°C° 1.2 mm 4 mps 754 mmHg 62%
    14:00 +34°C° 2.4 mm 4 mps 754 mmHg 67%
    15:00 +32°C° 2.4 mm 4 mps 753 mmHg 73%
    16:00 +30°C° 2.4 mm 4 mps 753 mmHg 78%
    17:00 +30°C° 2.3 mm 4 mps 753 mmHg 80%
    18:00 +29°C° 2.3 mm 4 mps 754 mmHg 83%
    19:00 +29°C° 2.3 mm 3 mps 754 mmHg 85%
    20:00 +29°C° 1.3 mm 3 mps 755 mmHg 85%
    21:00 +28°C° 1.3 mm 2 mps 755 mmHg 85%
    22:00 +28°C° 1.3 mm 2 mps 756 mmHg 86%
    23:00 +28°C° 0.6 mm 2 mps 755 mmHg 86%

    Day after tomorrow, 20 January, Saturday

    Time Temperature Precipitation Wind Pressure Humidity
    00:00 +28°C° 0.6 mm 1 mps 755 mmHg 86%
    01:00 +28°C° 0.6 mm 1 mps 755 mmHg 86%
    02:00 +27°C° 0.3 mm 1 mps 754 mmHg 86%
    03:00 +27°C° 0.3 mm 1 mps 754 mmHg 86%
    04:00 +27°C° 0.3 mm 1 mps 754 mmHg 86%
    05:00 +27°C° 0.3 mm 1 mps 754 mmHg 85%
    06:00 +28°C° 0.3 mm 1 mps 755 mmHg 83%
    07:00 +28°C° 0.3 mm 1 mps 755 mmHg 82%
    08:00 +29°C° 0.3 mm 1 mps 755 mmHg 77%
    09:00 +31°C° 0.3 mm 2 mps 755 mmHg 73%
    10:00 +32°C° 0.3 mm 2 mps 755 mmHg 68%
    11:00 +32°C° 1.3 mm 2 mps 755 mmHg 69%
    12:00 +32°C° 1.3 mm 2 mps 754 mmHg 69%
    13:00 +33°C° 1.3 mm 3 mps 753 mmHg 70%
    14:00 +31°C° 2.3 mm 3 mps 753 mmHg 74%
    15:00 +31°C° 2.3 mm 3 mps 753 mmHg 77%
    16:00 +30°C° 2.3 mm 4 mps 753 mmHg 80%
    17:00 +29°C° 1.5 mm 3 mps 753 mmHg 82%
    18:00 +29°C° 1.5 mm 3 mps 753 mmHg 84%
    19:00 +28°C° 1.5 mm 3 mps 754 mmHg 85%
    20:00 +28°C° 0.5 mm 3 mps 754 mmHg 84%
    21:00 +28°C° 0.5 mm 3 mps 755 mmHg 84%
    22:00 +28°C° 0.5 mm 2 mps 755 mmHg 83%
    23:00 +27°C° 0.1 mm 2 mps 755 mmHg 84%

    21 January, Sunday

    Time Temperature Precipitation Wind Pressure Humidity
    00:00 +27°C° 0.1 mm 2 mps 754 mmHg 84%
    01:00 +27°C° 0.1 mm 2 mps 754 mmHg 84%
    02:00 +27°C° 0.1 mm 2 mps 754 mmHg 84%
    03:00 +27°C° 0.1 mm 2 mps 753 mmHg 84%
    04:00 +27°C° 0.1 mm 2 mps 753 mmHg 85%
    05:00 +27°C° 0.1 mm 2 mps 754 mmHg 84%
    06:00 +27°C° 0.1 mm 2 mps 754 mmHg 83%
    07:00 +28°C° 0.1 mm 2 mps 754 mmHg 83%
    08:00 +29°C° 0.1 mm 2 mps 755 mmHg 78%
    09:00 +30°C° 0.1 mm 2 mps 755 mmHg 74%
    10:00 +31°C° 0.1 mm 2 mps 755 mmHg 70%
    11:00 +31°C° 0.1 mm 2 mps 755 mmHg 68%
    12:00 +33°C° 0.1 mm 3 mps 754 mmHg 67%
    13:00 +33°C° 0.1 mm 3 mps 753 mmHg 65%
    14:00 +33°C° 0.6 mm 3 mps 753 mmHg 67%
    15:00 +31°C° 0.6 mm 3 mps 753 mmHg 70%
    16:00 +31°C° 0.6 mm 3 mps 752 mmHg 73%
    17:00 +30°C° 0.4 mm 3 mps 753 mmHg 76%
    18:00 +29°C° 0.4 mm 2 mps 753 mmHg 79%
    19:00 +29°C° 0.4 mm 2 mps 754 mmHg 82%
    20:00 +28°C° 0.2 mm 2 mps 754 mmHg 83%
    21:00 +28°C° 0.2 mm 2 mps 755 mmHg 83%
    22:00 +28°C° 0.2 mm 2 mps 755 mmHg 84%
    23:00 +28°C° 0.4 mm 2 mps 755 mmHg 84%

    22 January, Monday

    Time Temperature Precipitation Wind Pressure Humidity
    00:00 +27°C° 0.4 mm 2 mps 754 mmHg 84%
    01:00 +27°C° 0.4 mm 2 mps 754 mmHg 84%
    02:00 +27°C° 0.4 mm 2 mps 753 mmHg 85%
    03:00 +27°C° 0.4 mm 2 mps 753 mmHg 86%
    04:00 +27°C° 0.4 mm 1 mps 753 mmHg 87%
    05:00 +27°C° 0.7 mm 1 mps 754 mmHg 87%
    06:00 +27°C° 0.7 mm 1 mps 754 mmHg 87%
    07:00 +27°C° 0.7 mm 1 mps 755 mmHg 88%
    08:00 +28°C° 0.4 mm 1 mps 755 mmHg 84%
    09:00 +28°C° 0.4 mm 1 mps 755 mmHg 81%
    10:00 +29°C° 0.4 mm 1 mps 755 mmHg 78%
    11:00 +30°C° 0.2 mm 1 mps 754 mmHg 76%
    12:00 +30°C° 0.2 mm 2 mps 754 mmHg 74%
    13:00 +31°C° 0.2 mm 2 mps 753 mmHg 72%
    14:00 +30°C° 0.3 mm 3 mps 753 mmHg 75%
    15:00 +30°C° 0.3 mm 3 mps 752 mmHg 77%
    16:00 +30°C° 0.3 mm 3 mps 752 mmHg 79%
    17:00 +29°C° 0.5 mm 3 mps 753 mmHg 81%
    18:00 +28°C° 0.5 mm 3 mps 753 mmHg 83%
    19:00 +28°C° 0.5 mm 3 mps 754 mmHg 85%
    20:00 +28°C° 0.6 mm 3 mps 754 mmHg 85%
    21:00 +28°C° 0.6 mm 3 mps 755 mmHg 85%
    22:00 +27°C° 0.6 mm 3 mps 755 mmHg 85%
    23:00 +27°C° 0.4 mm 3 mps 755 mmHg 86%

    23 January, Tuesday

    Time Temperature Precipitation Wind Pressure Humidity
    00:00 +27°C° 0.4 mm 4 mps 754 mmHg 87%
    01:00 +27°C° 0.4 mm 4 mps 754 mmHg 88%
    02:00 +27°C° 0.6 mm 4 mps 753 mmHg 88%
    03:00 +27°C° 0.6 mm 3 mps 753 mmHg 88%
    04:00 +27°C° 0.6 mm 3 mps 753 mmHg 89%
    05:00 +27°C° 0.4 mm 3 mps 754 mmHg 87%
    06:00 +28°C° 0.4 mm 2 mps 754 mmHg 86%
    07:00 +28°C° 0.4 mm 2 mps 755 mmHg 85%
    08:00 +29°C° 0.2 mm 2 mps 755 mmHg 80%
    09:00 +30°C° 0.2 mm 2 mps 755 mmHg 75%
    10:00 +33°C° 0.2 mm 3 mps 755 mmHg 69%
    11:00 +33°C° 0.6 mm 3 mps 754 mmHg 69%
    12:00 +33°C° 0.6 mm 4 mps 754 mmHg 68%
    13:00 +34°C° 0.6 mm 4 mps 753 mmHg 67%
    14:00 +33°C° 0.7 mm 4 mps 753 mmHg 70%
    15:00 +33°C° 0.7 mm 4 mps 753 mmHg 72%
    16:00 +32°C° 0.7 mm 4 mps 753 mmHg 74%
    17:00 +30°C° 0.7 mm 4 mps 753 mmHg 77%
    18:00 +30°C° 0.7 mm 3 mps 754 mmHg 80%
    19:00 +29°C° 0.7 mm 3 mps 754 mmHg 83%
    20:00 +29°C° 0.7 mm 3 mps 754 mmHg 84%
    21:00 +29°C° 0.7 mm 3 mps 755 mmHg 85%
    22:00 +28°C° 0.7 mm 2 mps 755 mmHg 85%
    23:00 +28°C° 0.7 mm 2 mps 755 mmHg 86%
    Show more